This demonstration page uses our WeatherBlox Daily Observations layout. Learn more.

Left ArrowRight Arrow

53.62937, 11.41316

Hourly Observations for June 8, 2017

Temp ( °F °C ) Dew Point ( °F °C ) Humidity (%) Winds ( mph kmh ) Pressure ( in mb ) Visibility ( mi km ) Precip ( " mm )
6:20 am 06:20 Mostly Sunny 54 12 48 9 82 82 SW 9 15 29.97 1015 7 11 N/A
6:50 am 06:50 Mostly Sunny 55 13 48 9 77 77 SSW 9 15 29.97 1015 7 11 N/A
7:20 am 07:20 Mostly Sunny 55 13 48 9 77 77 SSW 12 19 29.97 1015 7 11 N/A
7:50 am 07:50 Mostly Sunny 57 14 48 9 72 72 SW 14 22 29.97 1015 7 11 N/A
8:20 am 08:20 Mostly Sunny 57 14 50 10 77 77 SW 14 22 29.97 1015 7 11 N/A
8:50 am 08:50 Mostly Sunny 57 14 48 9 72 72 SW 13 20 29.97 1015 7 11 N/A
9:20 am 09:20 Mostly Sunny 59 15 50 10 72 72 SW 17 28 29.97 1015 7 11 N/A
9:50 am 09:50 Mostly Cloudy with Light Rain 55 13 50 10 82 82 SW 13 20 30.00 1016 30 48 N/A
10:20 am 10:20 Cloudy with Light Showers 54 12 52 11 94 94 SW 7 11 30.00 1016 30 48 N/A
10:50 am 10:50 Mostly Cloudy 55 13 52 11 88 88 SW 7 11 30.00 1016 30 48 N/A
11:20 am 11:20 Mostly Cloudy 57 14 50 10 77 77 SSW 12 19 30.00 1016 30 48 N/A
11:50 am 11:50 Mostly Sunny 59 15 52 11 77 77 SSW 12 19 30.00 1016 7 11 N/A
12:20 pm 12:20 Mostly Sunny 61 16 50 10 68 68 SW 14 22 30.00 1016 7 11 N/A
12:50 pm 12:50 Mostly Cloudy 61 16 50 10 68 68 SW 14 22 30.00 1016 30 48 N/A
1:20 pm 13:20 Mostly Cloudy 63 17 48 9 59 59 SSW 15 24 30.00 1016 30 48 N/A
1:50 pm 13:50 Mostly Cloudy 63 17 50 10 64 64 S 15 24 30.00 1016 30 48 N/A
2:20 pm 14:20 Mostly Cloudy 63 17 48 9 59 59 SSW 15 24 30.00 1016 30 48 N/A
2:50 pm 14:50 Mostly Cloudy 59 15 52 11 77 77 SSW 16 26 30.00 1016 30 48 N/A
3:20 pm 15:20 Cloudy 61 16 52 11 72 72 SW 17 28 30.00 1016 30 48 N/A
3:50 pm 15:50 Cloudy 61 16 54 12 77 77 SW 15 24 30.00 1016 30 48 N/A
4:20 pm 16:20 Cloudy 61 16 52 11 72 72 SW 15 24 30.00 1016 30 48 N/A
4:50 pm 16:50 Cloudy 61 16 52 11 72 72 SW 13 20 30.00 1016 30 48 N/A
5:20 pm 17:20 Cloudy 63 17 55 13 77 77 SSW 10 17 29.97 1015 30 48 N/A
5:50 pm 17:50 Cloudy 63 17 54 12 73 73 SSW 9 15 29.97 1015 30 48 N/A

Powered by AerisWeather